Location: Bussy-Saint-Georges
(48.8410°N, 2.7017°E)
Time: 04:29:16
(UTC+00:00)

CZ-4 R/B - Pass Details

Date: 18 October 2021
Orbit: 580 x 588 km, 97.7° (Epoch: 30 November)

Event Time Altitude Azimuth Distance (km) Brightness Sun altitude
Rises 17:49:04 0° 158° (SSE) 2,803 7.7 -9.9°
Reaches altitude 10° 17:51:13 10° 155° (SSE) 1,906 6.9 -10.2°
Maximum altitude 17:55:19 67° 74° (ENE) 638 4.4 -10.9°
Drops below altitude 10° 17:59:27 10° 352° (N) 1,916 7.2 -11.6°
Sets 18:01:37 0° 349° (N) 2,820 8.1 -11.9°
